Regional Weather Roundup
Issued by NWS

Home | Current Version | Previous Version | Graphics & Text | Print | Product List | Glossary On
Versions: 1 2 3 4 5 6 7 8 9 10 11 12 13 14 15 16 17 18 19 20 21 22 23 24 25 26 27 28 29 30 31 32 33 34 35 36 37 38 39 40 41 42 43 44 45 46 47 48 49 50
238
ASUS43 KFSD 300702
RWRSD

WEATHER ROUNDUP FOR SOUTH DAKOTA
NATIONAL WEATHER SERVICE SIOUX FALLS SD
200 AM CDT SUN APR 30 2017

NOTE: "FAIR" INDICATES FEW OR NO CLOUDS BELOW 12,000 FEET WITH NO
SIGNIFICANT WEATHER AND/OR OBSTRUCTIONS TO VISIBILITY.


SDZ001>005-009-010-012>017-300800-
NORTHWEST AND NORTH CENTRAL SOUTH DAKOTA

CITY           SKY/WX    TMP DP  RH WIND       PRES   REMARKS
BUFFALO          N/A     42  20  41 S7        30.08F
FAITH            N/A     39  24  55 SE10      30.15F
MOBRIDGE       PTCLDY    41  23  48 SE5       30.16F
$$

SDZ012>016-024>037-041>051-057-063-072>074-300800-
SOUTHWEST AND SOUTH CENTRAL SOUTH DAKOTA

CITY           SKY/WX    TMP DP  RH WIND       PRES   REMARKS
RAPID CTY ARPT CLEAR     31  20  63 NW6       30.15F WCI  25
PIERRE         CLOUDY    36  23  59 N7        30.15F
CUSTER         CLEAR     27  16  63 NW3       30.13F
ELLSWORTH AFB  CLEAR     37  20  51 W6        30.15F
PHILIP         CLEAR     29  26  89 W6        30.15F WCI  23
PINE RIDGE     CLEAR     28  24  85 CALM      30.15F
SPEARFISH      FAIR      32  19  59 S9        30.16F WCI  24
WINNER         FAIR      41  27  57 NE7       30.11F
$$

SDZ004>011-016>023-039-040-300800-
NORTHEAST SOUTH DAKOTA

CITY           SKY/WX    TMP DP  RH WIND       PRES   REMARKS
ABERDEEN       PTCLDY    36  27  69 N6        30.17F
WATERTOWN      CLOUDY    42  23  46 E6        30.13F
BROOKINGS      CLOUDY    44  23  43 NE8       30.11F
SISSETON         N/A     42  30  62 S8        30.14F
$$

SDZ017-020-022-023-036>040-048>070-300800-
SOUTHEAST SOUTH DAKOTA

CITY           SKY/WX    TMP DP  RH WIND       PRES   REMARKS
SIOUX FALLS    CLOUDY    46  28  49 NE12      30.09F
HURON          CLOUDY    39  30  70 NW5       30.13F
CHAMBERLAIN    MOCLDY    46  27  46 N5        30.12F
MITCHELL       CLOUDY    45  29  53 NE8       30.11F
YANKTON        CLOUDY    46  25  42 N13       30.06F
$$

ABBREVIATIONS USED IN REMARKS
   TC - TEMPERATURE IN CELSIUS
  WCI - WIND CHILL INDEX
   HX - HEAT INDEX
  VSB - VISIBILITY





USA.gov is the U.S. government's official web portal to all federal, state and local government web resources and services.